SHIJIAN-16 (SJ-16)

Last updated on Wed Jul 02 2025 00:02:14 GMT+0000 (Coordinated Universal Time)

1 39358U 13057A 25182.61409226 .00001256 00000+0 12832-3 0 9994 2 39358 74.9727 300.0179 0017193 0.0398 0.0788 14.91404566634069
UTC large
Height (km)
Speed (km/s)
/
Latitude / Longitude
Inclination (degrees)
Orbital Period (minutes)
Azimuth
Elevation
Range (km)
Doppler Factor

Next 0 passes for location: London (51.5072 / 0.1276)

Sorry there are no passes over London.